sat.trackr.live / text

‹ back to catalog

STARLINK-1931

NORAD 46790 · 2020-074BD

PAYLOAD ACTIVE UNKNOWN

§ Identity

Operator
Country
US
Launch date
2020-10-24
Launch site
AFETR
Launch vehicle
Mass (kg)
RCS (m²)

Purposes: comms

External: N2YO · Heavens-Above · Gunter

§ Orbital elements

Epoch: 2026-05-25T00:00:02.000160Z

Period
90.85 min
Inclination
53.0372°
Eccentricity
0.0008064
Mean motion
15.84996354 rev/d
Perigee alt
310.9 km
Apogee alt
321.7 km
Semi-major
6,694.5 km
B*
4.8274e-4
RAAN
263.5984°
Arg perigee
310.3061°
Mean anomaly
328.1496°
Rev number
601

§ Raw data

STARLINK-19311 46790U 20074BD  26145.00002315  .00116771  00000+0  48274-3 0  99982 46790  53.0372 263.5984 0008064 310.3061 328.1496 15.84996354  6011

JSON: /api/v1/satellites/46790 · /tle

For live sub-satellite position, see the globe view (requires WebGL).

§ Visibility from observer

Set your observer location to see the next 7 days of passes ≥ 10°. The values pass through the URL so the page stays shareable.

No JS? Fill the form by hand. The geolocation button needs JavaScript.